Flag for U.S.A. Weather past 2 weeks in Detroit, Michigan, U.S.A.

Now
61 °F

Passing clouds.


Feels Like: 61 °F
Forecast: 60 / 74 °F
Wind: No wind

Location: Detroit City Airport

Current Time: Aug 28, 2014 at 7:11:50 AM

Latest Report: Aug 28, 2014 at 6:53 AM


Visibility: 10 mi

Pressure: 30.15 "Hg

Humidity: 81%

Dew point: 55 °F

Location of DetroitLocation

Historic Weather in Detroit — Graph

°F

Detroit temperature yesterday

Maximum temperature yesterday: 80 °F (at 2:53 PM)
Minimum temperature yesterday: 65 °F (at 11:53 PM)
Average temperature yesterday: 73 °F

Past Weeks' High & Low Weather Summary

 TemperatureHumidityPressure
High91 °F (Aug 26, 2:53 PM)90% (Aug 23, 6:53 AM)30.14 "Hg (Aug 23, 6:53 AM)
Low53 °F (Aug 15, 5:53 AM)30% (Aug 15, 2:53 PM)29.74 "Hg (Aug 19, 5:53 PM)
Average73 °F66%29.98 "Hg
* Reported Aug 13 5:03 AM — Aug 28 5:53 AM, Detroit, Weather by CustomWeather, © 2014

Note: Actual official high and low records may vary slightly from our data, if they occured in-between our weather recording intervals... More about our weather records

Advertising

Detroit weather history for previous 24 hours

 ConditionsComfort  
Time TempWeatherWind HumidityBarometerVisibility
5:53 AM
Aug 28
61 °FPassing clouds.3 mph81%30.14 "Hg10 mi
4:53 AM63 °FClear.3 mph75%30.13 "Hg10 mi
4:03 AM63 °FPassing clouds.5 mph75%30.13 "Hg10 mi
3:53 AM64 °FPassing clouds.6 mph73%30.11 "Hg10 mi
2:53 AM65 °FMostly cloudy.6 mph70%30.12 "Hg10 mi
1:53 AM65 °FOvercast.6 mph73%30.12 "Hg10 mi
12:53 AM66 °FPassing clouds.8 mph65%30.11 "Hg10 mi
11:53 PM
Aug 27
65 °FClear.5 mph70%30.12 "Hg10 mi
10:53 PM66 °FClear.5 mph73%30.11 "Hg10 mi
9:53 PM68 °FClear.8 mph73%30.10 "Hg10 mi
8:53 PM73 °FOvercast.9 mph55%30.08 "Hg10 mi
7:53 PM76 °FSunny.7 mph50%30.07 "Hg10 mi
6:53 PM78 °FSunny.9 mph46%30.08 "Hg10 mi
5:53 PM79 °FSunny.7 mph44%30.08 "Hg10 mi
4:53 PM80 °FPassing clouds.7 mph45%30.07 "Hg10 mi
3:53 PM80 °FScattered clouds.3 mph45%30.07 "Hg10 mi
2:53 PM80 °FPassing clouds.6 mph49%30.09 "Hg10 mi
1:53 PM78 °FScattered clouds.3 mph52%30.10 "Hg10 mi
12:53 PM76 °FPassing clouds.5 mph54%30.11 "Hg10 mi
11:53 AM73 °FScattered clouds.5 mph57%30.13 "Hg10 mi
10:53 AM74 °FPartly sunny.6 mph57%30.12 "Hg10 mi
9:53 AM71 °FPartly sunny.7 mph66%30.11 "Hg10 mi
8:53 AM69 °FOvercast.6 mph68%30.12 "Hg10 mi
7:53 AM67 °FOvercast.No wind76%30.11 "Hg10 mi
Weather by CustomWeather, © 2014

See weather overviewHow to use our weather pages